Terminal Aerodrome Forecast
Issued by NWS State College, PA

Home | Current Version | Previous Version | Text Only | Print | Product List | Glossary On
Versions: 1 2 3 4 5 6 7 8 9 10 11 12 13 14 15 16 17 18 19 20 21 22 23 24 25 26 27 28 29 30 31 32 33 34 35 36 37 38 39 40 41 42 43 44 45 46 47 48 49 50
445
FTUS41 KCTP 080528
TAFIPT
TAF
KIPT 080528Z 0806/0906 VRB03KT P6SM SCT200
     FM081300 09005KT P6SM OVC070
     FM082200 12008KT P6SM -SHSN OVC040
     FM090200 10003KT 2SM -SN BR OVC020=

USA.gov is the U.S. government's official web portal to all federal, state and local government web resources and services.